Mackall AAF, NC

3:23 AM EDT on March 29, 2017 (GMT -0400)
Mackall Army Air Field

Weather History for KHFF - February, 2013

Change the Weather History Date:

Wednesday, February 13, 2013

  Actual Average Record
Temperature  
Mean Temperature 48 °F -  
Max Temperature 51 °F 55 °F 69 °F (2009)
Min Temperature 44 °F 34 °F 17 °F (2012)
Degree Days  
Heating Degree Days 18    
Moisture  
Dew Point 46 °F    
Average Humidity 94    
Maximum Humidity 100    
Minimum Humidity 82    
Precipitation  
Precipitation 0.08 in - - ()
Sea Level Pressure  
Sea Level Pressure 29.77 in    
Wind  
Wind Speed 6 mph (SE)    
Max Wind Speed 15 mph    
Max Gust Speed 21 mph    
Visibility 6 miles    
Events Rain    
Averages and records for this station are not official NWS values.
T = Trace of Precipitation, MM = Missing Value Source: NWS Daily Summary

Daily Weather History Graph

Daily Weather History Graph

Search for Another Location

Airport or City:

Trip Planner

Search our weather history database for the weather conditions in past years. The results will help you decide how hot, cold, wet, or windy it might be!

Date:

Astronomy

Feb. 13, 2013 Rise Set
Actual Time 7:05 AM EST 5:59 PM EST
Civil Twilight 6:39 AM EST 6:25 PM EST
Nautical Twilight 6:10 AM EST 6:54 PM EST
Astronomical Twilight 5:40 AM EST 7:24 PM EST
Moon 8:44 AM EST (2/13) 9:48 PM EST (2/13)
Length of Visible Light 11h 45m
Length of Day
10h 53m
Waxing Crescent, 13% of the Moon is Illuminated
Feb 13
Waxing Crescent
Feb 17
First Quarter
Feb 25
Full
Mar 4
Last Quarter
Mar 11
New

Hourly Weather History & Observations

Time (EST) Temp. Windchill Dew Point Humidity Pressure Visibility Wind Dir Wind Speed Gust Speed Precip Events Conditions
12:55 AM 48.0 °F - 46.0 °F 93% 29.93 in 10.0 mi SE 6.9 mph - 0.04 in Rain Light Rain
1:55 AM 47.1 °F - 45.5 °F 94% 29.88 in 10.0 mi NNE 3.5 mph - 0.02 in Rain Light Rain
2:01 AM 48.2 °F - 46.4 °F 93% 29.89 in 10.0 mi Variable 4.6 mph - N/A   Mostly Cloudy
2:18 AM 48.2 °F - 46.4 °F 93% 29.89 in 10.0 mi NNW 3.5 mph - N/A Rain Light Rain Showers
2:55 AM 46.9 °F - 45.0 °F 93% 29.87 in 10.0 mi ESE 3.5 mph - 0.00 in Rain Light Rain Showers
3:11 AM 46.4 °F 44.3 °F 44.6 °F 93% 29.86 in 10.0 mi SE 4.6 mph - N/A   Overcast
3:15 AM 46.4 °F 45.2 °F 44.6 °F 93% 29.86 in 10.0 mi SE 3.5 mph - N/A Rain Light Rain Showers
3:55 AM 46.4 °F 45.2 °F 44.8 °F 94% 29.85 in 7.0 mi ESE 3.5 mph - 0.02 in Rain Light Rain Showers
4:45 AM 46.4 °F - 44.6 °F 93% 29.85 in 10.0 mi Variable 1.2 mph - N/A   Light Drizzle
4:55 AM 46.0 °F 44.8 °F 44.4 °F 94% 29.84 in 10.0 mi ESE 3.5 mph - 0.00 in   Light Drizzle
5:55 AM 46.0 °F 43.9 °F 44.4 °F 94% 29.84 in 10.0 mi East 4.6 mph - 0.00 in   Light Drizzle
6:21 AM 44.6 °F 43.1 °F 44.6 °F 100% 29.83 in 8.0 mi East 3.5 mph - N/A   Light Drizzle
6:24 AM 44.6 °F 43.1 °F 44.6 °F 100% 29.83 in 8.0 mi East 3.5 mph - N/A   Overcast
6:32 AM 46.4 °F - 44.6 °F 93% 29.84 in 5.0 mi ENE 2.3 mph - N/A Rain Light Rain Showers
6:55 AM 45.5 °F 43.2 °F 44.8 °F 97% 29.83 in 3.0 mi NE 4.6 mph - 0.00 in Rain Light Rain Showers
7:00 AM 46.4 °F 45.2 °F 44.6 °F 93% 29.83 in 2.5 mi ENE 3.5 mph - N/A Rain Light Rain Showers
7:11 AM 46.4 °F 45.2 °F 44.6 °F 93% 29.83 in 2.5 mi NE 3.5 mph - N/A Rain Light Rain Showers
7:19 AM 46.4 °F - 44.6 °F 93% 29.83 in 1.8 mi NE 2.3 mph - N/A Rain Light Rain Showers
7:31 AM 46.4 °F 44.3 °F 44.6 °F 93% 29.80 in 2.0 mi East 4.6 mph - N/A Rain Light Rain Showers
7:55 AM 45.7 °F 43.4 °F 45.0 °F 97% 29.83 in 2.5 mi ENE 4.6 mph - N/A Rain Light Rain Showers
8:08 AM 46.4 °F 45.2 °F 44.6 °F 93% 29.84 in 2.5 mi ENE 3.5 mph - N/A   Light Drizzle
8:09 AM 46.4 °F 43.5 °F 44.6 °F 93% 29.84 in 3.0 mi ENE 5.8 mph - N/A   Light Drizzle
8:23 AM 46.4 °F 45.2 °F 44.6 °F 93% 29.83 in 2.5 mi East 3.5 mph - N/A   Light Drizzle
8:55 AM 46.2 °F 43.3 °F 45.3 °F 97% 29.82 in 2.5 mi East 5.8 mph - 0.00 in Rain Light Rain
9:02 AM 46.4 °F 44.3 °F 44.6 °F 93% 29.82 in 3.0 mi East 4.6 mph - N/A Rain Light Rain
9:18 AM 46.4 °F 42.9 °F 44.6 °F 93% 29.81 in 6.0 mi Variable 6.9 mph - N/A   Overcast
9:55 AM 46.4 °F 42.4 °F 45.3 °F 96% 29.79 in 6.0 mi East 8.1 mph - N/A   Overcast
10:47 AM 46.4 °F 43.5 °F 46.4 °F 100% 29.78 in 3.0 mi ENE 5.8 mph - N/A Rain Light Rain Showers
10:55 AM 46.8 °F - 45.9 °F 97% 29.77 in 4.0 mi Variable 6.9 mph - N/A   Drizzle
11:09 AM 46.4 °F 45.2 °F 46.4 °F 100% 29.81 in 2.5 mi Variable 3.5 mph - N/A   Drizzle
11:12 AM 46.4 °F 45.2 °F 46.4 °F 100% 29.79 in 3.0 mi East 3.5 mph - N/A   Drizzle
11:21 AM 46.4 °F 45.2 °F 46.4 °F 100% 29.79 in 2.5 mi NE 3.5 mph - N/A   Drizzle
11:28 AM 46.4 °F 42.9 °F 46.4 °F 100% 29.75 in 3.0 mi SE 6.9 mph - N/A Rain Light Rain
11:55 AM 47.1 °F - 45.9 °F 95% 29.76 in 4.0 mi Variable 3.5 mph - N/A Rain Light Rain Showers
12:03 PM 48.2 °F - 46.4 °F 93% 29.76 in 2.5 mi ESE 2.3 mph - N/A Rain Light Rain Showers
12:07 PM 48.2 °F - 46.4 °F 93% 29.74 in 3.0 mi SE 5.8 mph - N/A Rain Light Rain Showers
12:26 PM 48.2 °F - 46.4 °F 93% 29.76 in 2.5 mi South 3.5 mph - N/A Rain Light Rain Showers
12:29 PM 48.2 °F - 46.4 °F 93% 29.75 in 3.0 mi SSE 4.6 mph - N/A Rain Light Rain Showers
12:32 PM 48.2 °F - 46.4 °F 93% 29.73 in 2.5 mi SE 9.2 mph - N/A Rain Light Rain Showers
12:34 PM 48.2 °F - 46.4 °F 93% 29.73 in 3.0 mi SE 6.9 mph - N/A Rain Light Rain Showers
12:37 PM 48.2 °F - 46.4 °F 93% 29.74 in 4.0 mi SSE 5.8 mph - N/A   Overcast
12:55 PM 47.8 °F - 47.1 °F 97% 29.70 in 4.0 mi SE 6.9 mph - 0.00 in   Overcast
1:19 PM 48.2 °F - 48.2 °F 100% 29.69 in 4.0 mi SSE 6.9 mph - N/A Rain Light Rain Showers
1:39 PM 48.2 °F - 48.2 °F 100% 29.69 in 4.0 mi Variable 4.6 mph - N/A   Overcast
1:55 PM 48.6 °F - 47.5 °F 96% 29.69 in 6.0 mi SSW 9.2 mph - N/A   Overcast
2:05 PM 48.2 °F - 48.2 °F 100% 29.67 in 2.5 mi South 6.9 mph - N/A   Overcast
2:07 PM 48.2 °F - 48.2 °F 100% 29.66 in 2.0 mi SSE 6.9 mph - N/A Rain Light Rain Showers
2:10 PM 48.2 °F - 48.2 °F 100% 29.67 in 1.8 mi South 10.4 mph - N/A Rain Light Rain Showers
2:15 PM 48.2 °F - 48.2 °F 100% 29.70 in 1.5 mi SW 6.9 mph - N/A Rain Light Rain Showers
2:38 PM 48.2 °F - 48.2 °F 100% 29.68 in 1.8 mi SSW 5.8 mph - N/A Rain Light Rain Showers
2:45 PM 48.2 °F - 48.2 °F 100% 29.69 in 2.0 mi SW 6.9 mph - N/A Rain Light Rain Showers
2:50 PM 48.2 °F - 48.2 °F 100% 29.66 in 2.5 mi SSW 8.1 mph - N/A Rain Light Rain Showers
2:53 PM 48.2 °F - 48.2 °F 100% 29.70 in 3.0 mi WSW 8.1 mph - N/A Rain Light Rain Showers
2:55 PM 48.9 °F - 48.0 °F 97% 29.69 in 3.0 mi SSW 5.8 mph - N/A Rain Light Rain Showers
3:12 PM 50.0 °F - 48.2 °F 94% 29.69 in 3.0 mi SW 6.9 mph - N/A   Overcast
3:55 PM 50.0 °F - 48.2 °F 94% 29.67 in 10.0 mi SW 13.8 mph 19.6 mph N/A   Overcast
4:00 PM 50.0 °F - 48.2 °F 94% 29.69 in 7.0 mi WSW 13.8 mph - N/A   Overcast
4:20 PM 50.0 °F - 48.2 °F 94% 29.69 in 10.0 mi West 13.8 mph 20.7 mph N/A   Overcast
4:39 PM 51.8 °F - 48.2 °F 88% 29.70 in 10.0 mi West 13.8 mph 19.6 mph N/A   Overcast
4:49 PM 51.8 °F - 48.2 °F 88% 29.70 in 10.0 mi WSW 12.7 mph 20.7 mph N/A   Overcast
4:55 PM 50.9 °F - 48.2 °F 90% 29.70 in 10.0 mi WSW 11.5 mph - N/A   Overcast
5:00 PM 51.8 °F - 48.2 °F 88% 29.70 in 10.0 mi West 15.0 mph 19.6 mph N/A   Mostly Cloudy
5:55 PM 50.7 °F - 46.9 °F 87% 29.73 in 10.0 mi WSW 12.7 mph - N/A   Mostly Cloudy
6:55 PM 50.2 °F - 46.8 °F 88% 29.75 in 10.0 mi West 6.9 mph - N/A   Mostly Cloudy
7:55 PM 49.8 °F - 46.0 °F 87% 29.77 in 10.0 mi West 9.2 mph - N/A   Mostly Cloudy
8:00 PM 50.0 °F - 46.4 °F 87% 29.77 in 10.0 mi West 9.2 mph - N/A   Mostly Cloudy
8:55 PM 49.1 °F - 45.5 °F 87% 29.79 in 10.0 mi West 8.1 mph - N/A   Mostly Cloudy
9:55 PM 47.8 °F - 45.3 °F 91% 29.81 in 10.0 mi West 5.8 mph - N/A   Mostly Cloudy
10:55 PM 47.7 °F - 44.8 °F 90% 29.84 in 10.0 mi WNW 6.9 mph - N/A   Scattered Clouds
11:55 PM 46.9 °F - 41.7 °F 82% 29.87 in 10.0 mi NW 9.2 mph - N/A   Partly Cloudy